SOYUZ MS-06 is no longer on orbit SOYUZ MS-06 is classified as:
1 42937U 17054A 18058.64801626 +.00002063 +00000-0 +38351-4 0 9992 2 42937 051.6402 204.7914 0003113 133.9046 319.3314 15.54160216101485